Location: L�Ave Maria
(50.7161°N, 1.5911°E)
Time: 12:39:07
(UTC+00:00)

APEX - Pass Details

Date: 10 July 2020
Orbit: 333 x 1107 km, 69.9° (Epoch: 07 August)

Event Time Altitude Azimuth Distance (km) Brightness Sun altitude
Rises 22:44:27 0° 326° (NW) 2,128 7.8 -15.4°
Reaches altitude 10° 22:46:23 10° 322° (NW) 1,281 6.3 -15.5°
Maximum altitude 22:49:05 59° 241° (WSW) 404 2.5 -15.6°
Enters shadow 22:49:39 46° 190° (S) 482 2.6 -15.6°
